^^
Station Historical Data
 
Daily Summary for September 16, 2019 Units:  English    Metric   Both
« Previous Day
Next Day »
Daily Weekly Monthly Yearly Custom
  Current: High: Low: Average:
Temperature: 71.6 °F 87.1 °F 61.1 °F 72.3 °F
Dew Point: 66.5 °F 70.8 °F 59.1 °F 63.8 °F
Humidity: 84% 94% 48% 76%
Wind Speed: 10mph 23mph 3mph 8.1mph
Wind Gust: 13mph 26mph - -
WindSE - - ESE
Pressure: 29.52 in 29.62 in 29.50 in -
Precipitation: 0 in      
Historical Graphs
 
 
Tabular Data for September 16, 2019
Time Temperature Dew Point Pressure Wind Wind Speed Wind Gust Humidity Rainfall Rate (Hourly) solar Conditions
00:00 66.8 °F 60.8 °F 29.62 in East 4 mph 11 mph 81% 0 in 0.00 W/m2
00:05 66.7 °F 61 °F 29.62 in ESE 4 mph 9 mph 82% 0 in 0.00 W/m2
00:10 66.6 °F 60.9 °F 29.62 in East 3 mph 9 mph 82% 0 in 0.00 W/m2
00:15 66.4 °F 60.7 °F 29.62 in ESE 6 mph 8 mph 82% 0 in 0.00 W/m2
00:20 66.1 °F 60.8 °F 29.61 in ESE 6 mph 8 mph 83% 0 in 0.00 W/m2
00:25 65.9 °F 60.6 °F 29.61 in ESE 6 mph 8 mph 83% 0 in 0.00 W/m2
00:30 65.8 °F 60.8 °F 29.61 in ESE 6 mph 8 mph 84% 0 in 0.00 W/m2
00:35 65.7 °F 60.7 °F 29.61 in East 6 mph 8 mph 84% 0 in 0.00 W/m2
00:40 65.7 °F 60.7 °F 29.61 in ESE 6 mph 9 mph 84% 0 in 0.00 W/m2
00:45 65.6 °F 60.6 °F 29.61 in East 5 mph 9 mph 84% 0 in 0.00 W/m2
00:50 65.4 °F 60.4 °F 29.60 in ESE 4 mph 9 mph 84% 0 in 0.00 W/m2
00:55 65.2 °F 60.6 °F 29.60 in East 4 mph 9 mph 85% 0 in 0.00 W/m2
01:00 65.3 °F 60.7 °F 29.60 in ESE 7 mph 9 mph 85% 0 in 0.00 W/m2
01:05 65.3 °F 60.7 °F 29.61 in ESE 7 mph 9 mph 85% 0 in 0.00 W/m2
01:10 65.2 °F 60.6 °F 29.61 in East 6 mph 8 mph 85% 0 in 0.00 W/m2
01:15 65 °F 60.4 °F 29.61 in ESE 7 mph 8 mph 85% 0 in 0.00 W/m2
01:20 64.8 °F 60.5 °F 29.60 in ESE 6 mph 8 mph 86% 0 in 0.00 W/m2
01:25 64.7 °F 60.4 °F 29.60 in ESE 9 mph 9 mph 86% 0 in 0.00 W/m2
01:30 64.6 °F 60.3 °F 29.60 in ESE 7 mph 9 mph 86% 0 in 0.00 W/m2
01:35 64.6 °F 60.6 °F 29.60 in East 6 mph 9 mph 87% 0 in 0.00 W/m2
01:40 64.5 °F 60.5 °F 29.60 in ESE 4 mph 8 mph 87% 0 in 0.00 W/m2
01:45 64.4 °F 60.4 °F 29.60 in East 6 mph 8 mph 87% 0 in 0.00 W/m2
01:50 64.4 °F 60.4 °F 29.60 in East 7 mph 8 mph 87% 0 in 0.00 W/m2
01:55 64.3 °F 60.3 °F 29.60 in ESE 6 mph 9 mph 87% 0 in 0.00 W/m2
02:00 64.4 °F 60.4 °F 29.60 in East 8 mph 9 mph 87% 0 in 0.00 W/m2
02:05 64.5 °F 60.5 °F 29.60 in ESE 9 mph 9 mph 87% 0 in 0.00 W/m2
02:10 64.5 °F 60.5 °F 29.60 in East 7 mph 9 mph 87% 0 in 0.00 W/m2
02:15 64.5 °F 60.5 °F 29.60 in East 7 mph 9 mph 87% 0 in 0.00 W/m2
02:20 64.5 °F 60.5 °F 29.60 in East 6 mph 9 mph 87% 0 in 0.00 W/m2
02:25 64.3 °F 60.3 °F 29.60 in East 3 mph 9 mph 87% 0 in 0.00 W/m2
02:30 64.3 °F 60.3 °F 29.60 in ESE 7 mph 8 mph 87% 0 in 0.00 W/m2
02:35 64.2 °F 60.2 °F 29.59 in ESE 7 mph 8 mph 87% 0 in 0.00 W/m2
02:40 64.2 °F 60.2 °F 29.59 in East 7 mph 9 mph 87% 0 in 0.00 W/m2
02:45 64.1 °F 60.5 °F 29.60 in ESE 5 mph 9 mph 88% 0 in 0.00 W/m2
02:50 64.2 °F 60.6 °F 29.59 in East 4 mph 9 mph 88% 0 in 0.00 W/m2
02:55 64.1 °F 60.2 °F 29.60 in East 3 mph 9 mph 87% 0 in 0.00 W/m2
03:00 64 °F 60.1 °F 29.59 in East 7 mph 8 mph 87% 0 in 0.00 W/m2
03:05 63.8 °F 60.2 °F 29.59 in East 4 mph 8 mph 88% 0 in 0.00 W/m2
03:10 63.7 °F 60.1 °F 29.59 in ESE 7 mph 8 mph 88% 0 in 0.00 W/m2
03:15 63.5 °F 60.2 °F 29.59 in ESE 4 mph 9 mph 89% 0 in 0.00 W/m2
03:20 63.4 °F 60.1 °F 29.59 in East 7 mph 9 mph 89% 0 in 0.00 W/m2
03:25 63.4 °F 60.1 °F 29.59 in East 6 mph 9 mph 89% 0 in 0.00 W/m2
03:30 63.5 °F 60.2 °F 29.59 in ESE 4 mph 9 mph 89% 0 in 0.00 W/m2
03:35 63.6 °F 60.3 °F 29.59 in East 4 mph 8 mph 89% 0 in 0.00 W/m2
03:40 63.5 °F 59.9 °F 29.59 in East 4 mph 8 mph 88% 0 in 0.00 W/m2
03:45 63.4 °F 59.8 °F 29.59 in East 4 mph 8 mph 88% 0 in 0.00 W/m2
03:50 63.5 °F 60.2 °F 29.59 in ENE 5 mph 8 mph 89% 0 in 0.00 W/m2
03:55 63.7 °F 60.4 °F 29.59 in ENE 7 mph 8 mph 89% 0 in 0.00 W/m2
04:00 63.7 °F 60.1 °F 29.59 in East 8 mph 8 mph 88% 0 in 0.00 W/m2
04:05 63.7 °F 60.4 °F 29.59 in East 4 mph 8 mph 89% 0 in 0.00 W/m2
04:10 63.6 °F 60 °F 29.59 in East 6 mph 8 mph 88% 0 in 0.00 W/m2
04:15 63.5 °F 59.9 °F 29.58 in East 4 mph 8 mph 88% 0 in 0.00 W/m2
04:20 63.5 °F 60.2 °F 29.58 in East 6 mph 8 mph 89% 0 in 0.00 W/m2
04:25 63.4 °F 59.8 °F 29.58 in ESE 3 mph 8 mph 88% 0 in 0.00 W/m2
04:30 63.3 °F 60 °F 29.58 in East 6 mph 8 mph 89% 0 in 0.00 W/m2
04:35 63.2 °F 59.9 °F 29.58 in East 4 mph 8 mph 89% 0 in 0.00 W/m2
04:40 63.1 °F 59.8 °F 29.58 in East 9 mph 10 mph 89% 0 in 0.00 W/m2
04:45 63.2 °F 59.9 °F 29.58 in ESE 8 mph 10 mph 89% 0 in 0.00 W/m2
04:50 63.3 °F 60 °F 29.58 in East 9 mph 10 mph 89% 0 in 0.00 W/m2
04:55 63.3 °F 60 °F 29.58 in ESE 8 mph 10 mph 89% 0 in 0.00 W/m2
05:00 63.3 °F 60 °F 29.58 in ESE 7 mph 10 mph 89% 0 in 0.00 W/m2
05:05 63.2 °F 59.9 °F 29.58 in ESE 8 mph 10 mph 89% 0 in 0.00 W/m2
05:10 63.1 °F 59.8 °F 29.58 in ESE 7 mph 10 mph 89% 0 in 0.00 W/m2
05:15 63.1 °F 60.1 °F 29.57 in East 8 mph 10 mph 90% 0 in 0.00 W/m2
05:20 63.1 °F 60.1 °F 29.58 in ESE 7 mph 10 mph 90% 0 in 0.00 W/m2
05:25 63.2 °F 60.2 °F 29.58 in ESE 9 mph 10 mph 90% 0 in 0.00 W/m2
05:30 63.3 °F 60.3 °F 29.58 in ESE 8 mph 10 mph 90% 0 in 0.00 W/m2
05:35 63.3 °F 60.3 °F 29.58 in ESE 8 mph 10 mph 90% 0 in 0.00 W/m2
05:40 63.2 °F 60.2 °F 29.58 in ESE 6 mph 9 mph 90% 0 in 0.00 W/m2
05:45 63.1 °F 60.1 °F 29.58 in ESE 8 mph 9 mph 90% 0 in 0.00 W/m2
05:50 63 °F 60 °F 29.58 in East 7 mph 9 mph 90% 0 in 0.00 W/m2
05:55 62.9 °F 59.9 °F 29.57 in ESE 7 mph 10 mph 90% 0 in 0.00 W/m2
06:00 62.7 °F 59.7 °F 29.57 in ESE 6 mph 10 mph 90% 0 in 0.00 W/m2
06:05 62.5 °F 59.8 °F 29.57 in ESE 9 mph 10 mph 91% 0 in 0.00 W/m2
06:10 62.3 °F 59.6 °F 29.58 in ESE 7 mph 10 mph 91% 0 in 0.00 W/m2
06:15 62.1 °F 59.4 °F 29.58 in SE 7 mph 10 mph 91% 0 in 0.00 W/m2
06:20 62.1 °F 59.7 °F 29.58 in ESE 4 mph 9 mph 92% 0 in 0.00 W/m2
06:25 62.1 °F 59.4 °F 29.58 in ESE 4 mph 8 mph 91% 0 in 0.00 W/m2
06:30 62 °F 59.3 °F 29.58 in ESE 6 mph 8 mph 91% 0 in 0.00 W/m2
06:35 61.9 °F 59.5 °F 29.58 in ESE 6 mph 8 mph 92% 0 in 0.00 W/m2
06:40 61.8 °F 59.1 °F 29.58 in ESE 6 mph 7 mph 91% 0 in 0.00 W/m2
06:45 61.6 °F 59.3 °F 29.58 in East 5 mph 7 mph 92% 0 in 0.00 W/m2
06:50 61.5 °F 59.2 °F 29.58 in ESE 6 mph 6 mph 92% 0 in 0.00 W/m2
06:55 61.4 °F 59.1 °F 29.59 in East 7 mph 7 mph 92% 0 in 0.00 W/m2
07:00 61.3 °F 59.3 °F 29.59 in East 4 mph 7 mph 93% 0 in 0.00 W/m2
07:05 61.3 °F 59.3 °F 29.58 in East 4 mph 8 mph 93% 0 in 0.00 W/m2
07:10 61.2 °F 59.2 °F 29.59 in East 6 mph 8 mph 93% 0 in 0.00 W/m2
07:15 61.2 °F 59.2 °F 29.59 in ESE 4 mph 8 mph 93% 0 in 0.00 W/m2
07:20 61.2 °F 59.2 °F 29.58 in East 4 mph 8 mph 93% 0 in 5.00 W/m2
07:25 61.2 °F 59.2 °F 29.59 in ESE 4 mph 8 mph 93% 0 in 9.00 W/m2
07:30 61.2 °F 59.5 °F 29.58 in ESE 8 mph 8 mph 94% 0 in 11.00 W/m2
07:35 61.2 °F 59.5 °F 29.58 in ESE 6 mph 8 mph 94% 0 in 14.00 W/m2
07:40 61.2 °F 59.5 °F 29.59 in ESE 4 mph 8 mph 94% 0 in 18.00 W/m2
07:45 61.1 °F 59.4 °F 29.59 in ESE 7 mph 8 mph 94% 0 in 21.00 W/m2
07:50 61.1 °F 59.4 °F 29.58 in ESE 4 mph 8 mph 94% 0 in 23.00 W/m2
07:55 61.1 °F 59.4 °F 29.58 in ESE 6 mph 9 mph 94% 0 in 25.00 W/m2
08:00 61.2 °F 59.5 °F 29.58 in ESE 6 mph 9 mph 94% 0 in 25.00 W/m2
08:05 61.1 °F 59.4 °F 29.58 in ESE 6 mph 9 mph 94% 0 in 26.00 W/m2
08:10 61.3 °F 59.6 °F 29.59 in ESE 6 mph 8 mph 94% 0 in 26.00 W/m2
08:15 61.3 °F 59.6 °F 29.59 in ESE 6 mph 8 mph 94% 0 in 25.00 W/m2
08:20 61.4 °F 59.7 °F 29.59 in ESE 6 mph 8 mph 94% 0 in 32.00 W/m2
08:25 61.3 °F 59.6 °F 29.59 in ESE 7 mph 8 mph 94% 0 in 84.00 W/m2
08:30 61.4 °F 59.7 °F 29.59 in ESE 4 mph 8 mph 94% 0 in 46.00 W/m2
08:35 61.5 °F 59.8 °F 29.59 in East 7 mph 8 mph 94% 0 in 49.00 W/m2
08:40 61.6 °F 59.9 °F 29.59 in ESE 3 mph 8 mph 94% 0 in 79.00 W/m2
08:45 61.7 °F 60 °F 29.59 in East 6 mph 8 mph 94% 0 in 65.00 W/m2
08:50 61.8 °F 60.1 °F 29.59 in East 4 mph 8 mph 94% 0 in 69.00 W/m2
08:55 61.9 °F 60.2 °F 29.59 in East 7 mph 8 mph 94% 0 in 70.00 W/m2
09:00 62 °F 60 °F 29.59 in ESE 4 mph 8 mph 93% 0 in 83.00 W/m2
09:05 62.3 °F 60.2 °F 29.58 in ESE 7 mph 8 mph 93% 0 in 91.00 W/m2
09:10 62.6 °F 60.5 °F 29.59 in ESE 4 mph 8 mph 93% 0 in 123.00 W/m2
09:15 62.8 °F 60.7 °F 29.59 in ESE 6 mph 8 mph 93% 0 in 91.00 W/m2
09:20 62.9 °F 60.8 °F 29.59 in ESE 4 mph 8 mph 93% 0 in 146.00 W/m2
09:25 63.4 °F 61.3 °F 29.59 in ESE 7 mph 8 mph 93% 0 in 248.00 W/m2
09:30 64.1 °F 61.7 °F 29.58 in ESE 3 mph 8 mph 92% 0 in 202.00 W/m2
09:35 64.7 °F 62 °F 29.59 in ESE 4 mph 8 mph 91% 0 in 213.00 W/m2
09:40 65.1 °F 62.1 °F 29.58 in ESE 6 mph 7 mph 90% 0 in 207.00 W/m2
09:45 65.4 °F 62.4 °F 29.58 in ESE 3 mph 8 mph 90% 0 in 218.00 W/m2
09:50 65.6 °F 62.6 °F 29.58 in ESE 7 mph 8 mph 90% 0 in 339.00 W/m2
09:55 66.4 °F 63.4 °F 29.58 in ESE 7 mph 8 mph 90% 0 in 362.00 W/m2
10:00 67.1 °F 64.1 °F 29.58 in ESE 7 mph 9 mph 90% 0 in 385.00 W/m2
10:05 67.9 °F 64.5 °F 29.58 in SE 3 mph 10 mph 89% 0 in 404.00 W/m2
10:10 68.8 °F 64.8 °F 29.58 in ESE 11 mph 12 mph 87% 0 in 420.00 W/m2
10:15 69.6 °F 65.6 °F 29.58 in SE 8 mph 12 mph 87% 0 in 432.00 W/m2
10:20 70 °F 65.6 °F 29.58 in SE 8 mph 12 mph 86% 0 in 439.00 W/m2
10:25 70.5 °F 65.8 °F 29.58 in SE 8 mph 12 mph 85% 0 in 438.00 W/m2
10:30 70.9 °F 65.5 °F 29.58 in SE 11 mph 12 mph 83% 0 in 434.00 W/m2
10:35 71.2 °F 65.4 °F 29.58 in SE 8 mph 12 mph 82% 0 in 429.00 W/m2
10:40 71.4 °F 65.3 °F 29.58 in SE 9 mph 12 mph 81% 0 in 420.00 W/m2
10:45 71.7 °F 65.2 °F 29.57 in SE 4 mph 12 mph 80% 0 in 417.00 W/m2
10:50 72.1 °F 66.3 °F 29.58 in South 7 mph 13 mph 82% 0 in 420.00 W/m2
10:55 72.7 °F 66.2 °F 29.57 in SE 5 mph 13 mph 80% 0 in 431.00 W/m2
11:00 73 °F 66.5 °F 29.58 in SSE 8 mph 13 mph 80% 0 in 446.00 W/m2
11:05 73.2 °F 65.9 °F 29.57 in SSE 8 mph 14 mph 78% 0 in 445.00 W/m2
11:10 73.5 °F 66.6 °F 29.57 in SSE 11 mph 14 mph 79% 0 in 422.00 W/m2
11:15 73.9 °F 66.6 °F 29.57 in SSE 7 mph 13 mph 78% 0 in 422.00 W/m2
11:20 74.1 °F 66.4 °F 29.57 in SE 10 mph 13 mph 77% 0 in 457.00 W/m2
11:25 74.6 °F 66.9 °F 29.57 in South 6 mph 12 mph 77% 0 in 506.00 W/m2
11:30 75 °F 66.5 °F 29.57 in SSE 7 mph 12 mph 75% 0 in 573.00 W/m2
11:35 75.3 °F 66.4 °F 29.57 in SSE 4 mph 12 mph 74% 0 in 557.00 W/m2
11:40 75.7 °F 66.4 °F 29.57 in SE 8 mph 12 mph 73% 0 in 615.00 W/m2
11:45 76 °F 66.3 °F 29.57 in SSE 8 mph 11 mph 72% 0 in 638.00 W/m2
11:50 76.6 °F 67.3 °F 29.57 in SE 3 mph 11 mph 73% 0 in 647.00 W/m2
11:55 77 °F 66.5 °F 29.56 in SSE 7 mph 11 mph 70% 0 in 635.00 W/m2
12:00 77.4 °F 66.8 °F 29.56 in SSE 9 mph 11 mph 70% 0 in 657.00 W/m2
12:05 77.9 °F 66.1 °F 29.56 in SE 8 mph 11 mph 67% 0 in 663.00 W/m2
12:10 78.2 °F 66.3 °F 29.56 in SSE 7 mph 11 mph 67% 0 in 670.00 W/m2
12:15 78.5 °F 67.1 °F 29.56 in SE 4 mph 12 mph 68% 0 in 675.00 W/m2
12:20 78.7 °F 67.2 °F 29.56 in SE 7 mph 12 mph 68% 0 in 682.00 W/m2
12:25 78.8 °F 66.9 °F 29.56 in SE 4 mph 11 mph 67% 0 in 686.00 W/m2
12:30 79.3 °F 67.4 °F 29.56 in SE 8 mph 12 mph 67% 0 in 698.00 W/m2
12:35 79.6 °F 66.8 °F 29.56 in SE 10 mph 12 mph 65% 0 in 701.00 W/m2
12:40 79.6 °F 66.8 °F 29.55 in SE 4 mph 12 mph 65% 0 in 710.00 W/m2
12:45 79.6 °F 67.7 °F 29.56 in SE 11 mph 12 mph 67% 0 in 715.00 W/m2
12:50 79.6 °F 67.7 °F 29.56 in ESE 8 mph 12 mph 67% 0 in 722.00 W/m2
12:55 79.5 °F 68 °F 29.55 in ESE 11 mph 12 mph 68% 0 in 731.00 W/m2
13:00 79.3 °F 68.2 °F 29.55 in SE 9 mph 13 mph 69% 0 in 742.00 W/m2
13:05 79.2 °F 68.1 °F 29.55 in ESE 5 mph 14 mph 69% 0 in 578.00 W/m2
13:10 79.1 °F 68.1 °F 29.55 in SE 5 mph 14 mph 69% 0 in 526.00 W/m2
13:15 79 °F 68.4 °F 29.55 in ESE 8 mph 14 mph 70% 0 in 708.00 W/m2
13:20 79 °F 68.8 °F 29.55 in SE 9 mph 14 mph 71% 0 in 721.00 W/m2
13:25 79.3 °F 68.7 °F 29.55 in SE 10 mph 14 mph 70% 0 in 745.00 W/m2
13:30 79.2 °F 67.7 °F 29.55 in SE 11 mph 15 mph 68% 0 in 717.00 W/m2
13:35 79.1 °F 68.5 °F 29.55 in SSE 8 mph 15 mph 70% 0 in 719.00 W/m2
13:40 79.7 °F 69 °F 29.55 in South 11 mph 15 mph 70% 0 in 722.00 W/m2
13:45 80.1 °F 68.6 °F 29.54 in SE 3 mph 15 mph 68% 0 in 729.00 W/m2
13:50 80.5 °F 68.1 °F 29.54 in ESE 12 mph 15 mph 66% 0 in 733.00 W/m2
13:55 80.8 °F 68.4 °F 29.54 in SE 13 mph 15 mph 66% 0 in 729.00 W/m2
14:00 81.1 °F 68.2 °F 29.54 in SE 13 mph 17 mph 65% 0 in 652.00 W/m2
14:05 81.3 °F 68 °F 29.54 in SSE 12 mph 17 mph 64% 0 in 737.00 W/m2
14:10 81.7 °F 67.9 °F 29.53 in SSE 10 mph 17 mph 63% 0 in 728.00 W/m2
14:15 81.9 °F 68.5 °F 29.53 in SE 14 mph 17 mph 64% 0 in 721.00 W/m2
14:20 82.3 °F 68 °F 29.53 in ESE 12 mph 18 mph 62% 0 in 717.00 W/m2
14:25 82.8 °F 68.4 °F 29.53 in SE 10 mph 18 mph 62% 0 in 708.00 W/m2
14:30 83.2 °F 69.3 °F 29.53 in ESE 10 mph 18 mph 63% 0 in 705.00 W/m2
14:35 83.7 °F 68.8 °F 29.53 in SE 10 mph 18 mph 61% 0 in 707.00 W/m2
14:40 84.3 °F 68.9 °F 29.53 in SE 14 mph 17 mph 60% 0 in 671.00 W/m2
14:45 84.7 °F 70.2 °F 29.53 in SSE 10 mph 17 mph 62% 0 in 705.00 W/m2
14:50 85 °F 69.1 °F 29.53 in SE 14 mph 17 mph 59% 0 in 703.00 W/m2
14:55 85.1 °F 70.1 °F 29.52 in SE 12 mph 18 mph 61% 0 in 705.00 W/m2
15:00 85.2 °F 68.8 °F 29.52 in SE 11 mph 18 mph 58% 0 in 698.00 W/m2
15:05 85.2 °F 69.7 °F 29.52 in SE 13 mph 17 mph 60% 0 in 664.00 W/m2
15:10 85.4 °F 68.9 °F 29.52 in ESE 12 mph 17 mph 58% 0 in 684.00 W/m2
15:15 85.8 °F 70.8 °F 29.52 in SSE 7 mph 17 mph 61% 0 in 673.00 W/m2
15:20 86.1 °F 68.6 °F 29.52 in SE 18 mph 20 mph 56% 0 in 668.00 W/m2
15:25 86.1 °F 67.5 °F 29.52 in SSE 17 mph 20 mph 54% 0 in 657.00 W/m2
15:30 86.5 °F 68.9 °F 29.52 in SSE 11 mph 20 mph 56% 0 in 603.00 W/m2
15:35 86.6 °F 68.5 °F 29.52 in SSE 13 mph 18 mph 55% 0 in 603.00 W/m2
15:40 86.6 °F 66.3 °F 29.52 in SE 11 mph 18 mph 51% 0 in 591.00 W/m2
15:45 86.6 °F 68.5 °F 29.52 in SSE 9 mph 18 mph 55% 0 in 598.00 W/m2
15:50 86.6 °F 68 °F 29.52 in SE 9 mph 18 mph 54% 0 in 522.00 W/m2
15:55 86.4 °F 67.8 °F 29.52 in SE 8 mph 17 mph 54% 0 in 624.00 W/m2
16:00 86.7 °F 69.1 °F 29.52 in SE 10 mph 14 mph 56% 0 in 606.00 W/m2
16:05 87 °F 68.3 °F 29.52 in SE 14 mph 15 mph 54% 0 in 573.00 W/m2
16:10 87 °F 68.3 °F 29.52 in SSE 14 mph 17 mph 54% 0 in 575.00 W/m2
16:15 87 °F 68.3 °F 29.52 in SSE 12 mph 19 mph 54% 0 in 545.00 W/m2
16:20 86.9 °F 68.3 °F 29.52 in SSE 9 mph 19 mph 54% 0 in 519.00 W/m2
16:25 87 °F 67.8 °F 29.51 in SE 13 mph 18 mph 53% 0 in 531.00 W/m2
16:30 87.1 °F 67.3 °F 29.51 in SE 17 mph 18 mph 52% 0 in 529.00 W/m2
16:35 87.1 °F 67.3 °F 29.51 in SSE 9 mph 20 mph 52% 0 in 499.00 W/m2
16:40 87.1 °F 65.6 °F 29.51 in SE 13 mph 20 mph 49% 0 in 418.00 W/m2
16:45 87 °F 66.1 °F 29.51 in SE 16 mph 22 mph 50% 0 in 497.00 W/m2
16:50 87 °F 66.1 °F 29.51 in SE 9 mph 22 mph 50% 0 in 482.00 W/m2
16:55 86.7 °F 64.7 °F 29.51 in SSE 14 mph 22 mph 48% 0 in 343.00 W/m2
17:00 85.8 °F 64.4 °F 29.51 in SSE 15 mph 22 mph 49% 0 in 192.00 W/m2
17:05 85.2 °F 65.6 °F 29.51 in SSE 12 mph 20 mph 52% 0 in 146.00 W/m2
17:10 84.6 °F 65.6 °F 29.51 in SSE 9 mph 20 mph 53% 0 in 281.00 W/m2
17:15 85.2 °F 65.6 °F 29.51 in SE 15 mph 20 mph 52% 0 in 487.00 W/m2
17:20 86 °F 65.8 °F 29.50 in SE 10 mph 20 mph 51% 0 in 462.00 W/m2
17:25 86.3 °F 66.6 °F 29.50 in SSE 12 mph 20 mph 52% 0 in 445.00 W/m2
17:30 86.4 °F 66.7 °F 29.50 in SE 12 mph 20 mph 52% 0 in 418.00 W/m2
17:35 86.2 °F 66.5 °F 29.50 in SE 15 mph 20 mph 52% 0 in 383.00 W/m2
17:40 86.1 °F 66.4 °F 29.50 in SSE 9 mph 19 mph 52% 0 in 374.00 W/m2
17:45 85.7 °F 66 °F 29.50 in SSE 11 mph 19 mph 52% 0 in 193.00 W/m2
17:50 85.1 °F 66.6 °F 29.50 in SSE 10 mph 16 mph 54% 0 in 299.00 W/m2
17:55 85.2 °F 65 °F 29.50 in SSE 18 mph 26 mph 51% 0 in 288.00 W/m2
18:00 85 °F 65.4 °F 29.50 in SSE 7 mph 26 mph 52% 0 in 185.00 W/m2
18:05 84.6 °F 65.6 °F 29.50 in SSE 9 mph 19 mph 53% 0 in 274.00 W/m2
18:10 84.6 °F 65.6 °F 29.50 in SSE 16 mph 21 mph 53% 0 in 264.00 W/m2
18:15 84.5 °F 66 °F 29.51 in SE 10 mph 21 mph 54% 0 in 239.00 W/m2
18:20 84.3 °F 65.8 °F 29.51 in SE 23 mph 23 mph 54% 0 in 241.00 W/m2
18:25 84 °F 65.6 °F 29.51 in SE 13 mph 23 mph 54% 0 in 213.00 W/m2
18:30 83.6 °F 65.7 °F 29.51 in SSE 12 mph 24 mph 55% 0 in 179.00 W/m2
18:35 83.5 °F 65.6 °F 29.51 in SSE 12 mph 24 mph 55% 0 in 179.00 W/m2
18:40 83.2 °F 65.4 °F 29.51 in SSE 14 mph 22 mph 55% 0 in 172.00 W/m2
18:45 83.1 °F 65.8 °F 29.51 in SSE 9 mph 22 mph 56% 0 in 156.00 W/m2
18:50 82.9 °F 66.1 °F 29.51 in SE 16 mph 20 mph 57% 0 in 137.00 W/m2
18:55 82.5 °F 66.2 °F 29.51 in SE 10 mph 20 mph 58% 0 in 123.00 W/m2
19:00 82.2 °F 66 °F 29.51 in SSE 11 mph 17 mph 58% 0 in 105.00 W/m2
19:05 81.9 °F 66.2 °F 29.51 in SSE 10 mph 17 mph 59% 0 in 93.00 W/m2
19:10 81.6 °F 65.9 °F 29.51 in SSE 14 mph 17 mph 59% 0 in 74.00 W/m2
19:15 81.2 °F 66 °F 29.51 in SE 10 mph 17 mph 60% 0 in 60.00 W/m2
19:20 80.7 °F 66 °F 29.51 in SE 16 mph 21 mph 61% 0 in 44.00 W/m2
19:25 80.5 °F 65.8 °F 29.51 in SE 12 mph 23 mph 61% 0 in 35.00 W/m2
19:30 80 °F 65.8 °F 29.51 in SSE 6 mph 23 mph 62% 0 in 32.00 W/m2
19:35 79.6 °F 65.4 °F 29.51 in SSE 8 mph 19 mph 62% 0 in 25.00 W/m2
19:40 79.1 °F 65.4 °F 29.51 in SSE 13 mph 18 mph 63% 0 in 19.00 W/m2
19:45 78.8 °F 65.6 °F 29.51 in SSE 9 mph 18 mph 64% 0 in 14.00 W/m2
19:50 78.5 °F 65.3 °F 29.51 in SE 12 mph 15 mph 64% 0 in 11.00 W/m2
19:55 78.1 °F 65.4 °F 29.51 in SE 7 mph 14 mph 65% 0 in 7.00 W/m2
20:00 77.5 °F 65.2 °F 29.51 in ESE 7 mph 14 mph 66% 0 in 0.00 W/m2
20:05 77.1 °F 65.3 °F 29.51 in ESE 6 mph 14 mph 67% 0 in 0.00 W/m2
20:10 76.5 °F 65.1 °F 29.51 in ESE 6 mph 11 mph 68% 0 in 0.00 W/m2
20:15 76 °F 65.5 °F 29.51 in ESE 8 mph 11 mph 70% 0 in 0.00 W/m2
20:20 75.8 °F 65.7 °F 29.52 in ESE 7 mph 11 mph 71% 0 in 0.00 W/m2
20:25 75.4 °F 65.7 °F 29.51 in ESE 8 mph 11 mph 72% 0 in 0.00 W/m2
20:30 75 °F 65.8 °F 29.51 in ESE 6 mph 11 mph 73% 0 in 0.00 W/m2
20:35 74.4 °F 65.6 °F 29.52 in ESE 8 mph 11 mph 74% 0 in 0.00 W/m2
20:40 74.1 °F 65.7 °F 29.52 in SE 9 mph 11 mph 75% 0 in 0.00 W/m2
20:45 73.9 °F 65.5 °F 29.52 in SE 8 mph 11 mph 75% 0 in 0.00 W/m2
20:50 73.7 °F 65.7 °F 29.52 in ESE 8 mph 11 mph 76% 0 in 0.00 W/m2
20:55 73.5 °F 65.5 °F 29.52 in ESE 8 mph 11 mph 76% 0 in 0.00 W/m2
21:00 73.4 °F 65.7 °F 29.52 in ESE 5 mph 12 mph 77% 0 in 0.00 W/m2
21:05 73.3 °F 65.7 °F 29.52 in ESE 10 mph 12 mph 77% 0 in 0.00 W/m2
21:10 73.2 °F 65.9 °F 29.52 in ESE 9 mph 13 mph 78% 0 in 0.00 W/m2
21:15 73 °F 66.1 °F 29.52 in SE 11 mph 13 mph 79% 0 in 0.00 W/m2
21:20 72.8 °F 65.9 °F 29.52 in ESE 8 mph 13 mph 79% 0 in 0.00 W/m2
21:25 72.8 °F 66.3 °F 29.52 in SE 8 mph 13 mph 80% 0 in 0.00 W/m2
21:30 72.7 °F 66.5 °F 29.52 in SE 11 mph 14 mph 81% 0 in 0.00 W/m2
21:35 72.5 °F 66.3 °F 29.52 in SE 11 mph 14 mph 81% 0 in 0.00 W/m2
21:40 72.3 °F 66.5 °F 29.52 in SE 9 mph 13 mph 82% 0 in 0.00 W/m2
21:45 72.1 °F 66.3 °F 29.52 in SE 12 mph 13 mph 82% 0 in 0.00 W/m2
21:50 71.8 °F 66.4 °F 29.52 in SE 10 mph 13 mph 83% 0 in 0.00 W/m2
21:55 71.6 °F 66.5 °F 29.52 in SE 11 mph 13 mph 84% 0 in 0.00 W/m2
22:00 71.6 °F 66.5 °F 29.52 in SE 10 mph 13 mph 84% 0 in 0.00 W/m2
Bismarck, North Dakota, USA
Compliments of Weather Underground - 4 mb